Home > Weather > Eau Claire > Past weeks

Flag for USA Past Weather in Eau Claire, Wisconsin, USA — Yesterday and Last 2 Weeks

Now
66 °F

Overcast.


Feels Like: 66 °F
Forecast: 61 / 83 °F
Wind: 5 mph from Southeast

Location: Eau Claire County Airport

Current Time: Aug 27, 2016 at 7:28:12 PM

Latest Report: Aug 27, 2016 at 6:56 PM


Visibility: 7 mi

Pressure: 30.01 "Hg

Humidity: 93%

Dew Point: 64 °F

Location of Eau ClaireLocation

Past Weather in Eau Claire — Graph

°F

Eau Claire Temperature Yesterday

Maximum temperature yesterday: 73 °F (at 2:56 PM)
Minimum temperature yesterday: 54 °F (at 5:56 AM)
Average temperature yesterday: 63 °F

High & Low Weather Summary for the Past Weeks

 TemperatureHumidityPressure
High86 °F (Aug 18, 1:56 PM)100% (Aug 15, 4:56 AM)30.19 "Hg (Aug 15, 4:56 AM)
Low51 °F (Aug 22, 3:56 AM)44% (Aug 14, 2:56 PM)29.67 "Hg (Aug 20, 9:56 AM)
Average69 °F78%29.95 "Hg
* Reported Aug 12 5:56 PM — Aug 27 5:56 PM, Eau Claire, Weather by CustomWeather, © 2016

Note: Actual official high and low records may vary slightly from our data, if they occured in-between our weather recording intervals... More about our weather records

Advertising

Eau Claire Weather History for the Previous 24 Hours

Scroll right to see more
 ConditionsComfort  
Time TempWeatherWind HumidityBarometerVisibility
5:56 PM
Sat, Aug 27
66 °FOvercast.5 mph90%30.01 "Hg10 mi
4:56 PM65 °FOvercast.5 mph94%30.00 "Hg9 mi
3:56 PM65 °FOvercast.6 mph94%30.00 "Hg10 mi
2:56 PM66 °FLight rain. Overcast.6 mph81%30.01 "Hg10 mi
1:56 PM67 °FMostly cloudy.7 mph79%30.01 "Hg10 mi
12:56 PM67 °FOvercast.10 mph73%30.02 "Hg10 mi
11:56 AM67 °FOvercast.7 mph73%30.04 "Hg10 mi
10:56 AM68 °FMore clouds than sun.8 mph70%30.06 "Hg10 mi
9:56 AM67 °FOvercast.7 mph73%30.07 "Hg10 mi
8:56 AM64 °FScattered clouds.6 mph78%30.09 "Hg10 mi
7:56 AM63 °FScattered clouds.8 mph84%30.09 "Hg10 mi
6:56 AM59 °FClear.5 mph93%30.09 "Hg10 mi
5:56 AM60 °FPassing clouds.5 mph93%30.08 "Hg10 mi
4:56 AM62 °FOvercast.5 mph83%30.08 "Hg10 mi
3:56 AM62 °FMostly cloudy.5 mph80%30.09 "Hg10 mi
2:56 AM62 °FMostly cloudy.No wind86%30.10 "Hg10 mi
1:56 AM61 °FPassing clouds.3 mph93%30.10 "Hg10 mi
12:56 AM61 °FOvercast.No wind93%30.11 "Hg10 mi
11:56 PM
Fri, Aug 26
60 °FPassing clouds.No wind96%30.12 "Hg10 mi
10:56 PM60 °FClear.No wind96%30.14 "Hg10 mi
9:56 PM62 °FClear.No wind90%30.14 "Hg10 mi
8:56 PM62 °FClear.No wind90%30.13 "Hg10 mi
7:56 PM65 °FPassing clouds.3 mph78%30.13 "Hg10 mi
Weather by CustomWeather, © 2016

See weather overviewHow to use our weather pages